Regional Weather Roundup
Issued by NWS Raleigh/Durham, NC

Home | Current Version | Previous Version | Text Only | Print | Product List | Glossary On
Versions: 1 2 3 4 5 6 7 8 9 10 11 12 13 14 15 16 17 18 19 20 21 22 23 24 25 26 27 28 29 30 31 32 33 34 35 36 37 38 39 40 41 42 43 44 45 46 47 48 49 50
000
ASUS42 KRAH 020410
RWRRAH
NORTH CAROLINA WEATHER ROUNDUP
NATIONAL WEATHER SERVICE RALEIGH NC
1200 AM EDT WED SEP 02 2015

NOTE: "FAIR" INDICATES FEW OR NO CLOUDS BELOW 12,000 FEET WITH NO
SIGNIFICANT WEATHER AND/OR OBSTRUCTIONS TO VISIBILITY.

NCZ001-053-055-056-065-067-020500-
WESTERN NORTH CAROLINA

CITY           SKY/WX    TMP DP  RH WIND       PRES   REMARKS
ASHEVILLE      CLEAR     70  65  84 CALM      30.20R
JEFFERSON      MOCLDY    69  64  84 CALM      30.25R
MORGANTON      PTCLDY    71  68  92 NW3       30.17S
HICKORY        CLOUDY    78  67  68 CALM      30.12R
RUTHERFORDTON  CLEAR     73  70  91 CALM      30.13S
MOUNT AIRY     CLOUDY    74  69  85 CALM      30.15R
BOONE          PTCLDY    63  63 100 CALM      30.26S
$$

NCZ021-022-025-041-071-084-088-020500-
CENTRAL NORTH CAROLINA

CITY           SKY/WX    TMP DP  RH WIND       PRES   REMARKS
CHARLOTTE      PTCLDY    78  66  66 S3        30.11R
GREENSBORO     PTCLDY    77  65  66 CALM      30.10S
WINSTON-SALEM  CLEAR     73  67  81 CALM      30.12R
RALEIGH-DURHAM PTCLDY    72  69  90 CALM      30.09R
FORT BRAGG     PTCLDY    74  72  92 CALM      30.07R
FAYETTEVILLE   PTCLDY    76  71  85 S5        30.07S
BURLINGTON     CLEAR     71  71 100 CALM      30.09S
LAURINBURG     FAIR      73  70  90 CALM      30.08S
$$

NCZ011-015-027-028-043-044-047-080-103-020500-
NORTHEASTERN NORTH CAROLINA

CITY           SKY/WX    TMP DP  RH WIND       PRES   REMARKS
ROCKY MT-WILSO CLEAR     72  70  93 CALM      30.08S
GREENVILLE     CLEAR     72  72 100 CALM      30.08S FOG
WASHINGTON     CLEAR     72  71  96 CALM      30.07S
ELIZABETH CITY PTCLDY    72  72 100 CALM      30.06F
MANTEO         FAIR      73  72  98 CALM      30.06F
CAPE HATTERAS  FAIR      74  72  93 CALM      30.06F
$$

NCZ078-087-090-091-093-098-101-020500-
SOUTHEASTERN NORTH CAROLINA

CITY           SKY/WX    TMP DP  RH WIND       PRES   REMARKS
LUMBERTON      PTCLDY    76  73  91 CALM      30.08R
GOLDSBORO      PTCLDY    73  71  92 CALM      30.06S
KINSTON        PTCLDY    72  71  97 CALM      30.08S
KENANSVILLE      N/A     72  71  96 CALM      30.08S
NEW BERN       CLEAR     73  71  93 CALM      30.09R
CHERRY POINT   PTCLDY    75  73  93 SW5       30.08S
BEAUFORT       CLEAR     76  76 100 CALM      30.07S
JACKSONVILLE   PTCLDY    75  72  90 SW6       30.07R
WILMINGTON     PTCLDY    75  73  93 S5        30.08S
$$




USA.gov is the U.S. government's official web portal to all federal, state and local government web resources and services.